{"data":{"norad_id":62949,"intl_designator":"2025-029B","name":"STARLINK-32857","alt_names":[],"object_type":"PAYLOAD","status":"ACTIVE","operator":null,"country":"US","launch_date":"2025-02-11","launch_site_code":"AFWTR","launch_vehicle":null,"mission":null,"orbit_class":"UNKNOWN","rcs_meters":null,"size_class":null,"mass_kg":null,"dimensions":null,"purposes":["comms"],"wikipedia_slug":null,"has_3d_model":false,"image_url":null,"decayed_at":null,"tle_current":{"epoch":"2026-05-25T05:27:16.737120Z","epoch_age_seconds":55128,"freshness":"FRESH","line1":"1 62949U 25029B   26145.22727705  .00294230  00000+0  84637-2 0  9997","line2":"2 62949  53.1595 234.2715 0001231 233.6101 126.4788 15.34098140 73110","mean_motion":15.3409814,"eccentricity":0.0001231,"inclination_deg":53.1595,"raan_deg":234.2715,"arg_perigee_deg":233.6101,"mean_anomaly_deg":126.4788,"bstar":0.0084637,"rev_number":7311,"period_min":93.866224229957,"perigee_km":462.75836095684,"apogee_km":464.44279674875,"semimajor_km":6841.7375788528,"source":"CELESTRAK","updated_at":"2026-05-25T13:38:19.824114Z"}}}